TimeEST,TemperatureF,Dew PointF,Humidity,Sea Level PressureIn,VisibilityMPH,Wind Direction,Wind SpeedMPH,Gust SpeedMPH,PrecipitationIn,Events,Conditions,WindDirDegrees,DateUTC
12:15 AM,59.0,55.4,88,-9999,10.0,South,12.7,17.3,N/A,,Overcast,180,2012-11-13 05:15:00
12:35 AM,59.0,55.4,88,-9999,10.0,South,15.0,19.6,N/A,,Scattered Clouds,170,2012-11-13 05:35:00
12:55 AM,59.0,55.4,88,-9999,10.0,South,12.7,20.7,N/A,,Scattered Clouds,180,2012-11-13 05:55:00
1:15 AM,59.0,55.4,88,-9999,10.0,South,15.0,20.7,N/A,,Mostly Cloudy,180,2012-11-13 06:15:00
1:35 AM,59.0,55.4,88,-9999,10.0,South,13.8,19.6,N/A,,Overcast,190,2012-11-13 06:35:00
1:55 AM,60.8,55.4,82,-9999,10.0,South,13.8,19.6,N/A,,Overcast,180,2012-11-13 06:55:00
2:15 AM,60.8,57.2,88,-9999,10.0,South,15.0,19.6,N/A,,Overcast,190,2012-11-13 07:15:00
2:35 AM,60.8,57.2,88,-9999,10.0,South,10.4,-,N/A,,Overcast,180,2012-11-13 07:35:00
2:55 AM,60.8,55.4,82,-9999,10.0,South,12.7,-,N/A,,Overcast,180,2012-11-13 07:55:00
3:15 AM,60.8,55.4,82,-9999,10.0,South,12.7,-,N/A,,Overcast,190,2012-11-13 08:15:00
3:35 AM,60.8,55.4,82,-9999,8.0,South,11.5,17.3,N/A,,Mostly Cloudy,180,2012-11-13 08:35:00
3:55 AM,59.0,55.4,88,-9999,10.0,South,10.4,-,N/A,,Mostly Cloudy,170,2012-11-13 08:55:00
4:15 AM,59.0,55.4,88,-9999,10.0,South,8.1,-,N/A,,Mostly Cloudy,190,2012-11-13 09:15:00
4:35 AM,55.4,50.0,82,-9999,10.0,WNW,13.8,20.7,N/A,,Overcast,300,2012-11-13 09:35:00
4:55 AM,51.8,46.4,82,-9999,10.0,WNW,11.5,19.6,N/A,,Overcast,300,2012-11-13 09:55:00
5:15 AM,51.8,46.4,82,30.18,10.0,NW,11.5,17.3,0.01,,Overcast,320,2012-11-13 10:15:00
5:35 AM,51.8,46.4,82,30.19,10.0,NW,10.4,18.4,0.01,,Overcast,320,2012-11-13 10:35:00
5:55 AM,51.8,46.4,82,30.20,10.0,NW,10.4,16.1,0.01,,Overcast,320,2012-11-13 10:55:00
6:15 AM,50.0,44.6,82,30.21,10.0,NNW,10.4,17.3,N/A,,Overcast,340,2012-11-13 11:15:00
6:35 AM,50.0,44.6,82,30.22,10.0,NW,10.4,17.3,N/A,,Overcast,320,2012-11-13 11:35:00
7:35 AM,48.2,42.8,82,30.25,10.0,NNW,9.2,19.6,N/A,,Overcast,330,2012-11-13 12:35:00
7:55 AM,48.2,42.8,82,30.26,10.0,NNW,10.4,-,N/A,,Overcast,330,2012-11-13 12:55:00
8:15 AM,48.2,42.8,82,30.27,10.0,NW,8.1,18.4,N/A,,Overcast,320,2012-11-13 13:15:00
8:35 AM,48.2,42.8,82,30.28,10.0,NNW,8.1,16.1,N/A,,Overcast,330,2012-11-13 13:35:00
8:55 AM,48.2,42.8,82,30.28,10.0,NW,9.2,-,N/A,,Overcast,320,2012-11-13 13:55:00
9:15 AM,46.4,42.8,87,30.29,10.0,NW,11.5,16.1,N/A,,Overcast,320,2012-11-13 14:15:00
9:35 AM,46.4,42.8,87,30.30,7.0,NNW,6.9,-,N/A,,Overcast,330,2012-11-13 14:35:00
9:55 AM,46.4,42.8,87,30.31,8.0,NNW,10.4,16.1,N/A,,Overcast,340,2012-11-13 14:55:00
10:15 AM,46.4,42.8,87,30.32,10.0,NNW,8.1,-,N/A,,Overcast,330,2012-11-13 15:15:00
10:35 AM,46.4,42.8,87,30.31,3.0,NW,9.2,17.3,0.02,,Overcast,310,2012-11-13 15:35:00
10:55 AM,44.6,41.0,87,30.33,7.0,NW,11.5,19.6,0.03,,Overcast,310,2012-11-13 15:55:00
11:15 AM,44.6,41.0,87,30.32,2.5,NNW,9.2,16.1,0.03,,Overcast,330,2012-11-13 16:15:00
11:35 AM,44.6,39.2,81,30.31,2.5,NW,9.2,17.3,0.04,,Mostly Cloudy,320,2012-11-13 16:35:00
11:55 AM,44.6,39.2,81,30.31,3.0,NW,8.1,-,0.06,,Overcast,320,2012-11-13 16:55:00
12:15 PM,44.6,41.0,87,30.30,8.0,NW,8.1,-,N/A,,Overcast,320,2012-11-13 17:15:00
12:35 PM,44.6,39.2,81,30.31,3.0,NW,5.8,-,0.02,,Overcast,310,2012-11-13 17:35:00
12:55 PM,42.8,39.2,87,30.30,3.0,NNW,8.1,-,0.04,,Overcast,340,2012-11-13 17:55:00
1:15 PM,42.8,39.2,87,30.30,10.0,NNW,8.1,-,0.01,,Overcast,340,2012-11-13 18:15:00
1:55 PM,42.8,39.2,87,30.30,10.0,NNW,9.2,-,0.02,,Overcast,340,2012-11-13 18:55:00
2:15 PM,42.8,39.2,87,30.30,10.0,North,6.9,-,0.01,,Overcast,350,2012-11-13 19:15:00
2:35 PM,44.6,39.2,81,30.30,10.0,NNW,9.2,-,0.01,,Overcast,340,2012-11-13 19:35:00
2:55 PM,44.6,39.2,81,30.30,10.0,North,8.1,-,0.01,,Overcast,350,2012-11-13 19:55:00
3:15 PM,44.6,39.2,81,30.31,10.0,NNW,6.9,-,N/A,,Overcast,330,2012-11-13 20:15:00
3:35 PM,44.6,39.2,81,30.32,10.0,NNW,6.9,-,N/A,,Overcast,340,2012-11-13 20:35:00
3:55 PM,44.6,37.4,76,30.32,10.0,NNW,4.6,-,N/A,,Overcast,340,2012-11-13 20:55:00
4:15 PM,44.6,37.4,76,30.32,10.0,North,4.6,-,N/A,,Overcast,350,2012-11-13 21:15:00
4:35 PM,44.6,37.4,76,30.32,10.0,NNW,6.9,-,N/A,,Overcast,340,2012-11-13 21:35:00
4:55 PM,44.6,37.4,76,30.33,10.0,NNW,4.6,-,N/A,,Overcast,340,2012-11-13 21:55:00
5:15 PM,44.6,37.4,76,30.34,10.0,NW,3.5,-,N/A,,Overcast,320,2012-11-13 22:15:00
5:35 PM,44.6,37.4,76,30.34,10.0,NNW,5.8,-,N/A,,Overcast,330,2012-11-13 22:35:00
5:55 PM,44.6,37.4,76,30.35,10.0,NNW,5.8,-,N/A,,Overcast,330,2012-11-13 22:55:00
6:15 PM,44.6,37.4,76,30.35,10.0,NNW,6.9,-,N/A,,Overcast,330,2012-11-13 23:15:00
6:35 PM,44.6,37.4,76,30.36,10.0,NNW,6.9,-,N/A,,Overcast,330,2012-11-13 23:35:00
6:55 PM,44.6,37.4,76,30.37,10.0,NNW,6.9,-,N/A,,Overcast,330,2012-11-13 23:55:00
7:15 PM,44.6,37.4,76,30.37,10.0,NNW,4.6,-,N/A,,Overcast,330,2012-11-14 00:15:00
7:35 PM,44.6,35.6,71,30.37,10.0,North,5.8,-,N/A,,Overcast,350,2012-11-14 00:35:00
7:55 PM,44.6,35.6,71,30.38,10.0,NNW,4.6,-,N/A,,Overcast,340,2012-11-14 00:55:00
8:15 PM,44.6,35.6,71,30.38,10.0,NNW,5.8,-,N/A,,Overcast,340,2012-11-14 01:15:00
8:35 PM,44.6,35.6,71,30.39,10.0,NNW,5.8,-,N/A,,Overcast,340,2012-11-14 01:35:00
8:55 PM,44.6,35.6,71,30.39,10.0,North,5.8,-,N/A,,Overcast,350,2012-11-14 01:55:00
9:15 PM,44.6,35.6,71,30.40,10.0,North,10.4,-,N/A,,Overcast,360,2012-11-14 02:15:00
9:35 PM,44.6,33.8,66,30.40,10.0,North,15.0,-,N/A,,Overcast,10,2012-11-14 02:35:00
9:55 PM,42.8,33.8,70,30.40,10.0,North,10.4,-,N/A,,Overcast,10,2012-11-14 02:55:00
10:15 PM,42.8,30.2,61,30.40,10.0,NNE,10.4,17.3,N/A,,Scattered Clouds,20,2012-11-14 03:15:00
10:35 PM,41.0,30.2,65,30.41,10.0,North,9.2,-,N/A,,Scattered Clouds,10,2012-11-14 03:35:00
10:55 PM,41.0,30.2,65,30.41,10.0,North,10.4,16.1,N/A,,Overcast,10,2012-11-14 03:55:00
11:15 PM,41.0,30.2,65,30.41,10.0,North,10.4,16.1,N/A,,Overcast,360,2012-11-14 04:15:00
11:35 PM,39.2,30.2,70,30.42,10.0,North,6.9,-,N/A,,Mostly Cloudy,350,2012-11-14 04:35:00
11:55 PM,39.2,30.2,70,30.42,10.0,North,8.1,-,N/A,,Mostly Cloudy,350,2012-11-14 04:55:00